Year,Month,Day,Hour,Minute,Value (Times are PST for insolation in W/m^2)
2014,04,26,00,00,0.00
2014,04,26,00,01,0.00
2014,04,26,00,02,0.00
2014,04,26,00,03,0.00
2014,04,26,00,04,0.00
2014,04,26,00,05,0.00
2014,04,26,00,06,0.00
2014,04,26,00,07,0.00
2014,04,26,00,08,0.00
2014,04,26,00,09,0.00
2014,04,26,00,10,0.00
2014,04,26,00,11,0.00
2014,04,26,00,12,0.00
2014,04,26,00,13,0.00
2014,04,26,00,14,0.00
2014,04,26,00,15,0.00
2014,04,26,00,16,0.00
2014,04,26,00,17,0.00
2014,04,26,00,18,0.00
2014,04,26,00,19,0.00
2014,04,26,00,20,0.00
2014,04,26,00,21,0.00
2014,04,26,00,22,0.00
2014,04,26,00,23,0.00
2014,04,26,00,24,0.00
2014,04,26,00,25,0.00
2014,04,26,00,26,0.00
2014,04,26,00,27,0.00
2014,04,26,00,28,0.00
2014,04,26,00,29,0.00
2014,04,26,00,30,0.00
2014,04,26,00,31,0.00
2014,04,26,00,32,0.00
2014,04,26,00,33,0.00
2014,04,26,00,34,0.00
2014,04,26,00,35,0.00
2014,04,26,00,36,0.00
2014,04,26,00,37,0.00
2014,04,26,00,38,0.00
2014,04,26,00,39,0.00
2014,04,26,00,40,0.00
2014,04,26,00,41,0.00
2014,04,26,00,42,0.00
2014,04,26,00,43,0.00
2014,04,26,00,44,0.00
2014,04,26,00,45,0.00
2014,04,26,00,46,0.00
2014,04,26,00,47,0.00
2014,04,26,00,48,0.00
2014,04,26,00,49,0.00
2014,04,26,00,50,0.00
2014,04,26,00,51,0.00
2014,04,26,00,52,0.00
2014,04,26,00,53,0.00
2014,04,26,00,54,0.00
2014,04,26,00,55,0.00
2014,04,26,00,56,0.00
2014,04,26,00,57,0.00
2014,04,26,00,58,0.00
2014,04,26,00,59,0.00
2014,04,26,01,00,0.00
2014,04,26,01,01,0.00
2014,04,26,01,02,0.00
2014,04,26,01,03,0.00
2014,04,26,01,04,0.00
2014,04,26,01,05,0.00
2014,04,26,01,06,0.00
2014,04,26,01,07,0.00
2014,04,26,01,08,0.00
2014,04,26,01,09,0.00
2014,04,26,01,10,0.00
2014,04,26,01,11,0.00
2014,04,26,01,12,0.00
2014,04,26,01,13,0.00
2014,04,26,01,14,0.00
2014,04,26,01,15,0.00
2014,04,26,01,16,0.00
2014,04,26,01,17,0.00
2014,04,26,01,18,0.00
2014,04,26,01,19,0.00
2014,04,26,01,20,0.00
2014,04,26,01,21,0.00
2014,04,26,01,22,0.00
2014,04,26,01,23,0.00
2014,04,26,01,24,0.00
2014,04,26,01,25,0.00
2014,04,26,01,26,0.00
2014,04,26,01,27,0.00
2014,04,26,01,28,0.00
2014,04,26,01,29,0.00
2014,04,26,01,30,0.00
2014,04,26,01,31,0.00
2014,04,26,01,32,0.00
2014,04,26,01,33,0.00
2014,04,26,01,34,0.00
2014,04,26,01,35,0.00
2014,04,26,01,36,0.00
2014,04,26,01,37,0.00
2014,04,26,01,38,0.00
2014,04,26,01,39,0.00
2014,04,26,01,40,0.00
2014,04,26,01,41,0.00
2014,04,26,01,42,0.00
2014,04,26,01,43,0.00
2014,04,26,01,44,0.00
2014,04,26,01,45,0.00
2014,04,26,01,46,0.00
2014,04,26,01,47,0.00
2014,04,26,01,48,0.00
2014,04,26,01,49,0.00
2014,04,26,01,50,0.00
2014,04,26,01,51,0.00
2014,04,26,01,52,0.00
2014,04,26,01,53,0.00
2014,04,26,01,54,0.00
2014,04,26,01,55,0.00
2014,04,26,01,56,0.00
2014,04,26,01,57,0.00
2014,04,26,01,58,0.00
2014,04,26,01,59,0.00
2014,04,26,02,00,0.00
2014,04,26,02,01,0.00
2014,04,26,02,02,0.00
2014,04,26,02,03,0.00
2014,04,26,02,04,0.00
2014,04,26,02,05,0.00
2014,04,26,02,06,0.00
2014,04,26,02,07,0.00
2014,04,26,02,08,0.00
2014,04,26,02,09,0.00
2014,04,26,02,10,0.00
2014,04,26,02,11,0.00
2014,04,26,02,12,0.00
2014,04,26,02,13,0.00
2014,04,26,02,14,0.00
2014,04,26,02,15,0.00
2014,04,26,02,16,0.00
2014,04,26,02,17,0.00
2014,04,26,02,18,0.00
2014,04,26,02,19,0.00
2014,04,26,02,20,0.00
2014,04,26,02,21,0.00
2014,04,26,02,22,0.00
2014,04,26,02,23,0.00
2014,04,26,02,24,0.00
2014,04,26,02,25,0.00
2014,04,26,02,26,0.00
2014,04,26,02,27,0.00
2014,04,26,02,28,0.00
2014,04,26,02,29,0.00
2014,04,26,02,30,0.00
2014,04,26,02,31,0.00
2014,04,26,02,32,0.00
2014,04,26,02,33,0.00
2014,04,26,02,34,0.00
2014,04,26,02,35,0.00
2014,04,26,02,36,0.00
2014,04,26,02,37,0.00
2014,04,26,02,38,0.00
2014,04,26,02,39,0.00
2014,04,26,02,40,0.00
2014,04,26,02,41,0.00
2014,04,26,02,42,0.00
2014,04,26,02,43,0.00
2014,04,26,02,44,0.00
2014,04,26,02,45,0.00
2014,04,26,02,46,0.00
2014,04,26,02,47,0.00
2014,04,26,02,48,0.00
2014,04,26,02,49,0.00
2014,04,26,02,50,0.00
2014,04,26,02,51,0.00
2014,04,26,02,52,0.00
2014,04,26,02,53,0.00
2014,04,26,02,54,0.00
2014,04,26,02,55,0.00
2014,04,26,02,56,0.00
2014,04,26,02,57,0.00
2014,04,26,02,58,0.00
2014,04,26,02,59,0.00
2014,04,26,03,00,0.00
2014,04,26,03,01,0.00
2014,04,26,03,02,0.00
2014,04,26,03,03,0.00
2014,04,26,03,04,0.00
2014,04,26,03,05,0.00
2014,04,26,03,06,0.00
2014,04,26,03,07,0.00
2014,04,26,03,08,0.00
2014,04,26,03,09,0.00
2014,04,26,03,10,0.00
2014,04,26,03,11,0.00
2014,04,26,03,12,0.00
2014,04,26,03,13,0.00
2014,04,26,03,14,0.00
2014,04,26,03,15,0.00
2014,04,26,03,16,0.00
2014,04,26,03,17,0.00
2014,04,26,03,18,0.00
2014,04,26,03,19,0.00
2014,04,26,03,20,0.00
2014,04,26,03,21,0.00
2014,04,26,03,22,0.00
2014,04,26,03,23,0.00
2014,04,26,03,24,0.00
2014,04,26,03,25,0.00
2014,04,26,03,26,0.00
2014,04,26,03,27,0.00
2014,04,26,03,28,0.00
2014,04,26,03,29,0.00
2014,04,26,03,30,0.00
2014,04,26,03,31,0.00
2014,04,26,03,32,0.00
2014,04,26,03,33,0.00
2014,04,26,03,34,0.00
2014,04,26,03,35,0.00
2014,04,26,03,36,0.00
2014,04,26,03,37,0.00
2014,04,26,03,38,0.00
2014,04,26,03,39,0.00
2014,04,26,03,40,0.00
2014,04,26,03,41,0.00
2014,04,26,03,42,0.00
2014,04,26,03,43,0.00
2014,04,26,03,44,0.00
2014,04,26,03,45,0.00
2014,04,26,03,46,0.00
2014,04,26,03,47,0.00
2014,04,26,03,48,0.00
2014,04,26,03,49,0.00
2014,04,26,03,50,0.00
2014,04,26,03,51,0.00
2014,04,26,03,52,0.00
2014,04,26,03,53,0.00
2014,04,26,03,54,0.00
2014,04,26,03,55,0.00
2014,04,26,03,56,0.00
2014,04,26,03,57,0.00
2014,04,26,03,58,0.00
2014,04,26,03,59,0.00
2014,04,26,04,00,0.00
2014,04,26,04,01,0.00
2014,04,26,04,02,0.00
2014,04,26,04,03,0.00
2014,04,26,04,04,0.00
2014,04,26,04,05,0.00
2014,04,26,04,06,0.00
2014,04,26,04,07,0.00
2014,04,26,04,08,0.00
2014,04,26,04,09,0.00
2014,04,26,04,10,0.00
2014,04,26,04,11,0.00
2014,04,26,04,12,0.00
2014,04,26,04,13,0.00
2014,04,26,04,14,0.00
2014,04,26,04,15,0.00
2014,04,26,04,16,0.00
2014,04,26,04,17,0.00
2014,04,26,04,18,0.00
2014,04,26,04,19,0.00
2014,04,26,04,20,0.00
2014,04,26,04,21,0.00
2014,04,26,04,22,0.00
2014,04,26,04,23,0.00
2014,04,26,04,24,0.00
2014,04,26,04,25,0.00
2014,04,26,04,26,0.00
2014,04,26,04,27,0.00
2014,04,26,04,28,0.00
2014,04,26,04,29,0.00
2014,04,26,04,30,0.00
2014,04,26,04,31,0.00
2014,04,26,04,32,0.00
2014,04,26,04,33,0.00
2014,04,26,04,34,0.00
2014,04,26,04,35,0.00
2014,04,26,04,36,0.00
2014,04,26,04,37,0.00
2014,04,26,04,38,0.00
2014,04,26,04,39,0.00
2014,04,26,04,40,0.00
2014,04,26,04,41,0.00
2014,04,26,04,42,0.00
2014,04,26,04,43,0.00
2014,04,26,04,44,0.00
2014,04,26,04,45,0.00
2014,04,26,04,46,0.00
2014,04,26,04,47,0.00
2014,04,26,04,48,0.00
2014,04,26,04,49,0.00
2014,04,26,04,50,0.00
2014,04,26,04,51,0.00
2014,04,26,04,52,0.00
2014,04,26,04,53,0.00
2014,04,26,04,54,0.00
2014,04,26,04,55,0.00
2014,04,26,04,56,0.00
2014,04,26,04,57,0.00
2014,04,26,04,58,0.00
2014,04,26,04,59,0.00
2014,04,26,05,00,0.00
2014,04,26,05,01,0.00
2014,04,26,05,02,0.00
2014,04,26,05,03,0.00
2014,04,26,05,04,0.00
2014,04,26,05,05,0.00
2014,04,26,05,06,0.00
2014,04,26,05,07,0.00
2014,04,26,05,08,0.00
2014,04,26,05,09,0.00
2014,04,26,05,10,0.00
2014,04,26,05,11,0.00
2014,04,26,05,12,0.00
2014,04,26,05,13,0.00
2014,04,26,05,14,0.00
2014,04,26,05,15,0.00
2014,04,26,05,16,0.00
2014,04,26,05,17,0.00
2014,04,26,05,18,0.00
2014,04,26,05,19,0.00
2014,04,26,05,20,0.00
2014,04,26,05,21,0.00
2014,04,26,05,22,0.00
2014,04,26,05,23,0.00
2014,04,26,05,24,0.00
2014,04,26,05,25,0.00
2014,04,26,05,26,0.00
2014,04,26,05,27,0.00
2014,04,26,05,28,0.00
2014,04,26,05,29,0.00
2014,04,26,05,30,0.00
2014,04,26,05,31,0.00
2014,04,26,05,32,0.00
2014,04,26,05,33,0.00
2014,04,26,05,34,0.00
2014,04,26,05,35,0.00
2014,04,26,05,36,0.00
2014,04,26,05,37,0.00
2014,04,26,05,38,0.00
2014,04,26,05,39,0.00
2014,04,26,05,40,0.00
2014,04,26,05,41,0.00
2014,04,26,05,42,0.00
2014,04,26,05,43,0.00
2014,04,26,05,44,0.00
2014,04,26,05,45,0.00
2014,04,26,05,46,0.00
2014,04,26,05,47,0.00
2014,04,26,05,48,0.00
2014,04,26,05,49,0.00
2014,04,26,05,50,0.00
2014,04,26,05,51,0.00
2014,04,26,05,52,0.00
2014,04,26,05,53,0.00
2014,04,26,05,54,0.00
2014,04,26,05,55,0.00
2014,04,26,05,56,0.00
2014,04,26,05,57,0.00
2014,04,26,05,58,0.00
2014,04,26,05,59,0.00
2014,04,26,06,00,0.00
2014,04,26,06,01,0.00
2014,04,26,06,02,0.00
2014,04,26,06,03,0.00
2014,04,26,06,04,3.30
2014,04,26,06,05,5.00
2014,04,26,06,06,6.70
2014,04,26,06,07,8.80
2014,04,26,06,08,9.10
2014,04,26,06,09,11.00
2014,04,26,06,10,11.20
2014,04,26,06,11,12.00
2014,04,26,06,12,12.60
2014,04,26,06,13,14.70
2014,04,26,06,14,16.90
2014,04,26,06,15,18.50
2014,04,26,06,16,20.10
2014,04,26,06,17,22.20
2014,04,26,06,18,24.30
2014,04,26,06,19,25.70
2014,04,26,06,20,29.20
2014,04,26,06,21,30.00
2014,04,26,06,22,31.80
2014,04,26,06,23,32.00
2014,04,26,06,24,33.70
2014,04,26,06,25,41.60
2014,04,26,06,26,49.00
2014,04,26,06,27,52.70
2014,04,26,06,28,62.40
2014,04,26,06,29,62.60
2014,04,26,06,30,60.10
2014,04,26,06,31,58.00
2014,04,26,06,32,63.60
2014,04,26,06,33,70.30
2014,04,26,06,34,75.60
2014,04,26,06,35,80.20
2014,04,26,06,36,82.70
2014,04,26,06,37,83.90
2014,04,26,06,38,83.00
2014,04,26,06,39,83.00
2014,04,26,06,40,83.20
2014,04,26,06,41,85.00
2014,04,26,06,42,88.90
2014,04,26,06,43,91.70
2014,04,26,06,44,93.00
2014,04,26,06,45,94.00
2014,04,26,06,46,95.00
2014,04,26,06,47,95.00
2014,04,26,06,48,99.70
2014,04,26,06,49,105.60
2014,04,26,06,50,111.90
2014,04,26,06,51,115.60
2014,04,26,06,52,117.80
2014,04,26,06,53,120.00
2014,04,26,06,54,121.00
2014,04,26,06,55,121.00
2014,04,26,06,56,115.50
2014,04,26,06,57,104.60
2014,04,26,06,58,107.50
2014,04,26,06,59,78.00
2014,04,26,07,00,71.00
2014,04,26,07,01,70.90
2014,04,26,07,02,75.60
2014,04,26,07,03,85.00
2014,04,26,07,04,88.00
2014,04,26,07,05,89.60
2014,04,26,07,06,92.60
2014,04,26,07,07,94.80
2014,04,26,07,08,93.20
2014,04,26,07,09,102.80
2014,04,26,07,10,146.90
2014,04,26,07,11,94.90
2014,04,26,07,12,87.40
2014,04,26,07,13,85.30
2014,04,26,07,14,83.60
2014,04,26,07,15,83.00
2014,04,26,07,16,81.90
2014,04,26,07,17,81.00
2014,04,26,07,18,82.30
2014,04,26,07,19,83.70
2014,04,26,07,20,88.90
2014,04,26,07,21,92.60
2014,04,26,07,22,93.00
2014,04,26,07,23,91.00
2014,04,26,07,24,90.90
2014,04,26,07,25,90.00
2014,04,26,07,26,90.70
2014,04,26,07,27,94.40
2014,04,26,07,28,99.50
2014,04,26,07,29,103.30
2014,04,26,07,30,106.00
2014,04,26,07,31,108.10
2014,04,26,07,32,109.00
2014,04,26,07,33,109.00
2014,04,26,07,34,107.50
2014,04,26,07,35,108.60
2014,04,26,07,36,109.00
2014,04,26,07,37,112.60
2014,04,26,07,38,116.90
2014,04,26,07,39,139.10
2014,04,26,07,40,180.40
2014,04,26,07,41,140.80
2014,04,26,07,42,125.90
2014,04,26,07,43,129.50
2014,04,26,07,44,135.00
2014,04,26,07,45,135.70
2014,04,26,07,46,132.00
2014,04,26,07,47,128.90
2014,04,26,07,48,127.70
2014,04,26,07,49,130.90
2014,04,26,07,50,136.00
2014,04,26,07,51,140.40
2014,04,26,07,52,145.50
2014,04,26,07,53,148.10
2014,04,26,07,54,151.20
2014,04,26,07,55,153.50
2014,04,26,07,56,157.70
2014,04,26,07,57,165.30
2014,04,26,07,58,176.10
2014,04,26,07,59,200.40
2014,04,26,08,00,255.80
2014,04,26,08,01,278.20
2014,04,26,08,02,310.20
2014,04,26,08,03,343.30
2014,04,26,08,04,330.70
2014,04,26,08,05,325.00
2014,04,26,08,06,165.60
2014,04,26,08,07,134.50
2014,04,26,08,08,130.40
2014,04,26,08,09,141.90
2014,04,26,08,10,172.10
2014,04,26,08,11,175.50
2014,04,26,08,12,143.70
2014,04,26,08,13,149.10
2014,04,26,08,14,158.70
2014,04,26,08,15,191.40
2014,04,26,08,16,210.50
2014,04,26,08,17,206.00
2014,04,26,08,18,206.00
2014,04,26,08,19,160.90
2014,04,26,08,20,132.70
2014,04,26,08,21,122.30
2014,04,26,08,22,127.40
2014,04,26,08,23,152.00
2014,04,26,08,24,212.30
2014,04,26,08,25,225.00
2014,04,26,08,26,267.60
2014,04,26,08,27,397.40
2014,04,26,08,28,385.70
2014,04,26,08,29,391.40
2014,04,26,08,30,386.60
2014,04,26,08,31,383.90
2014,04,26,08,32,366.90
2014,04,26,08,33,361.70
2014,04,26,08,34,374.20
2014,04,26,08,35,372.30
2014,04,26,08,36,371.00
2014,04,26,08,37,381.90
2014,04,26,08,38,380.30
2014,04,26,08,39,387.30
2014,04,26,08,40,390.00
2014,04,26,08,41,391.00
2014,04,26,08,42,394.60
2014,04,26,08,43,397.10
2014,04,26,08,44,400.70
2014,04,26,08,45,405.40
2014,04,26,08,46,408.00
2014,04,26,08,47,409.20
2014,04,26,08,48,410.70
2014,04,26,08,49,413.90
2014,04,26,08,50,416.60
2014,04,26,08,51,419.60
2014,04,26,08,52,423.60
2014,04,26,08,53,427.20
2014,04,26,08,54,431.10
2014,04,26,08,55,432.40
2014,04,26,08,56,435.00
2014,04,26,08,57,438.90
2014,04,26,08,58,441.70
2014,04,26,08,59,444.30
2014,04,26,09,00,447.00
2014,04,26,09,01,449.10
2014,04,26,09,02,451.20
2014,04,26,09,03,448.00
2014,04,26,09,04,454.00
2014,04,26,09,05,458.60
2014,04,26,09,06,471.00
2014,04,26,09,07,471.20
2014,04,26,09,08,471.10
2014,04,26,09,09,473.20
2014,04,26,09,10,475.20
2014,04,26,09,11,477.00
2014,04,26,09,12,480.60
2014,04,26,09,13,483.10
2014,04,26,09,14,486.70
2014,04,26,09,15,490.40
2014,04,26,09,16,494.70
2014,04,26,09,17,499.50
2014,04,26,09,18,504.30
2014,04,26,09,19,506.00
2014,04,26,09,20,514.90
2014,04,26,09,21,531.60
2014,04,26,09,22,552.20
2014,04,26,09,23,571.60
2014,04,26,09,24,584.30
2014,04,26,09,25,587.00
2014,04,26,09,26,587.00
2014,04,26,09,27,586.10
2014,04,26,09,28,582.50
2014,04,26,09,29,582.10
2014,04,26,09,30,591.20
2014,04,26,09,31,598.50
2014,04,26,09,32,584.10
2014,04,26,09,33,595.00
2014,04,26,09,34,605.00
2014,04,26,09,35,605.00
2014,04,26,09,36,605.90
2014,04,26,09,37,606.00
2014,04,26,09,38,606.70
2014,04,26,09,39,621.70
2014,04,26,09,40,628.00
2014,04,26,09,41,628.00
2014,04,26,09,42,625.40
2014,04,26,09,43,619.00
2014,04,26,09,44,619.00
2014,04,26,09,45,619.00
2014,04,26,09,46,643.00
2014,04,26,09,47,669.20
2014,04,26,09,48,660.30
2014,04,26,09,49,595.10
2014,04,26,09,50,548.70
2014,04,26,09,51,543.00
2014,04,26,09,52,543.00
2014,04,26,09,53,649.00
2014,04,26,09,54,651.20
2014,04,26,09,55,654.60
2014,04,26,09,56,629.10
2014,04,26,09,57,668.00
2014,04,26,09,58,668.00
2014,04,26,09,59,668.00
2014,04,26,10,00,667.00
2014,04,26,10,01,669.80
2014,04,26,10,02,686.00
2014,04,26,10,03,694.00
2014,04,26,10,04,694.00
2014,04,26,10,05,697.20
2014,04,26,10,06,702.30
2014,04,26,10,07,698.50
2014,04,26,10,08,696.40
2014,04,26,10,09,707.00
2014,04,26,10,10,730.70
2014,04,26,10,11,758.70
2014,04,26,10,12,784.60
2014,04,26,10,13,802.50
2014,04,26,10,14,814.00
2014,04,26,10,15,814.00
2014,04,26,10,16,814.00
2014,04,26,10,17,814.00
2014,04,26,10,18,814.00
2014,04,26,10,19,814.00
2014,04,26,10,20,814.00
2014,04,26,10,21,814.00
2014,04,26,10,22,814.00
2014,04,26,10,23,814.00
2014,04,26,10,24,763.40
2014,04,26,10,25,283.00
2014,04,26,10,26,283.00
2014,04,26,10,27,283.00
2014,04,26,10,28,495.70
2014,04,26,10,29,876.60
2014,04,26,10,30,888.00
2014,04,26,10,31,888.00
2014,04,26,10,32,888.00
2014,04,26,10,33,877.30
2014,04,26,10,34,870.50
2014,04,26,10,35,845.70
2014,04,26,10,36,847.70
2014,04,26,10,37,850.80
2014,04,26,10,38,851.00
2014,04,26,10,39,792.40
2014,04,26,10,40,251.60
2014,04,26,10,41,322.00
2014,04,26,10,42,322.00
2014,04,26,10,43,322.00
2014,04,26,10,44,322.00
2014,04,26,10,45,322.00
2014,04,26,10,46,606.70
2014,04,26,10,47,844.00
2014,04,26,10,48,414.70
2014,04,26,10,49,218.20
2014,04,26,10,50,242.00
2014,04,26,10,51,252.00
2014,04,26,10,52,330.30
2014,04,26,10,53,389.60
2014,04,26,10,54,301.00
2014,04,26,10,55,301.00
2014,04,26,10,56,404.30
2014,04,26,10,57,735.00
2014,04,26,10,58,780.80
2014,04,26,10,59,861.00
2014,04,26,11,00,861.00
2014,04,26,11,01,855.50
2014,04,26,11,02,854.10
2014,04,26,11,03,857.30
2014,04,26,11,04,858.00
2014,04,26,11,05,501.80
2014,04,26,11,06,418.00
2014,04,26,11,07,818.00
2014,04,26,11,08,821.00
2014,04,26,11,09,821.00
2014,04,26,11,10,816.80
2014,04,26,11,11,793.50
2014,04,26,11,12,781.60
2014,04,26,11,13,790.90
2014,04,26,11,14,799.90
2014,04,26,11,15,810.70
2014,04,26,11,16,829.50
2014,04,26,11,17,841.20
2014,04,26,11,18,854.00
2014,04,26,11,19,877.50
2014,04,26,11,20,897.00
2014,04,26,11,21,900.00
2014,04,26,11,22,910.90
2014,04,26,11,23,900.20
2014,04,26,11,24,866.80
2014,04,26,11,25,886.50
2014,04,26,11,26,901.30
2014,04,26,11,27,913.10
2014,04,26,11,28,923.60
2014,04,26,11,29,922.90
2014,04,26,11,30,893.00
2014,04,26,11,31,902.80
2014,04,26,11,32,925.30
2014,04,26,11,33,937.30
2014,04,26,11,34,944.90
2014,04,26,11,35,927.40
2014,04,26,11,36,921.30
2014,04,26,11,37,893.70
2014,04,26,11,38,877.80
2014,04,26,11,39,851.30
2014,04,26,11,40,846.50
2014,04,26,11,41,897.30
2014,04,26,11,42,889.30
2014,04,26,11,43,864.80
2014,04,26,11,44,838.90
2014,04,26,11,45,843.70
2014,04,26,11,46,857.20
2014,04,26,11,47,844.10
2014,04,26,11,48,854.70
2014,04,26,11,49,841.20
2014,04,26,11,50,803.00
2014,04,26,11,51,832.00
2014,04,26,11,52,877.10
2014,04,26,11,53,896.60
2014,04,26,11,54,910.80
2014,04,26,11,55,926.40
2014,04,26,11,56,915.70
2014,04,26,11,57,899.60
2014,04,26,11,58,886.00
2014,04,26,11,59,886.00
2014,04,26,12,00,886.00
2014,04,26,12,01,886.00
2014,04,26,12,02,870.50
2014,04,26,12,03,823.70
2014,04,26,12,04,805.00
2014,04,26,12,05,661.70
2014,04,26,12,06,628.00
2014,04,26,12,07,799.80
2014,04,26,12,08,791.00
2014,04,26,12,09,791.00
2014,04,26,12,10,796.50
2014,04,26,12,11,821.00
2014,04,26,12,12,798.40
2014,04,26,12,13,742.00
2014,04,26,12,14,593.70
2014,04,26,12,15,389.80
2014,04,26,12,16,383.00
2014,04,26,12,17,383.00
2014,04,26,12,18,732.30
2014,04,26,12,19,972.50
2014,04,26,12,20,992.10
2014,04,26,12,21,991.00
2014,04,26,12,22,991.00
2014,04,26,12,23,763.80
2014,04,26,12,24,719.90
2014,04,26,12,25,728.00
2014,04,26,12,26,728.00
2014,04,26,12,27,728.00
2014,04,26,12,28,728.00
2014,04,26,12,29,728.00
2014,04,26,12,30,836.60
2014,04,26,12,31,956.00
2014,04,26,12,32,901.50
2014,04,26,12,33,868.00
2014,04,26,12,34,788.70
2014,04,26,12,35,799.50
2014,04,26,12,36,797.90
2014,04,26,12,37,820.50
2014,04,26,12,38,819.00
2014,04,26,12,39,819.00
2014,04,26,12,40,743.90
2014,04,26,12,41,406.00
2014,04,26,12,42,565.70
2014,04,26,12,43,965.00
2014,04,26,12,44,879.30
2014,04,26,12,45,762.10
2014,04,26,12,46,778.60
2014,04,26,12,47,779.50
2014,04,26,12,48,787.30
2014,04,26,12,49,774.20
2014,04,26,12,50,724.70
2014,04,26,12,51,727.00
2014,04,26,12,52,726.30
2014,04,26,12,53,726.00
2014,04,26,12,54,727.90
2014,04,26,12,55,747.70
2014,04,26,12,56,740.30
2014,04,26,12,57,719.00
2014,04,26,12,58,665.50
2014,04,26,12,59,625.30
2014,04,26,13,00,593.00
2014,04,26,13,01,606.00
2014,04,26,13,02,636.50
2014,04,26,13,03,647.00
2014,04,26,13,04,649.00
2014,04,26,13,05,597.20
2014,04,26,13,06,522.40
2014,04,26,13,07,462.00
2014,04,26,13,08,456.80
2014,04,26,13,09,445.00
2014,04,26,13,10,392.70
2014,04,26,13,11,457.30
2014,04,26,13,12,456.00
2014,04,26,13,13,454.40
2014,04,26,13,14,453.70
2014,04,26,13,15,475.70
2014,04,26,13,16,473.20
2014,04,26,13,17,475.00
2014,04,26,13,18,582.30
2014,04,26,13,19,682.50
2014,04,26,13,20,709.70
2014,04,26,13,21,644.30
2014,04,26,13,22,652.10
2014,04,26,13,23,658.70
2014,04,26,13,24,759.90
2014,04,26,13,25,822.30
2014,04,26,13,26,765.00
2014,04,26,13,27,746.40
2014,04,26,13,28,685.10
2014,04,26,13,29,639.30
2014,04,26,13,30,626.80
2014,04,26,13,31,619.60
2014,04,26,13,32,591.10
2014,04,26,13,33,558.30
2014,04,26,13,34,558.80
2014,04,26,13,35,606.90
2014,04,26,13,36,638.40
2014,04,26,13,37,614.70
2014,04,26,13,38,594.10
2014,04,26,13,39,636.70
2014,04,26,13,40,652.30
2014,04,26,13,41,702.10
2014,04,26,13,42,710.30
2014,04,26,13,43,668.50
2014,04,26,13,44,706.90
2014,04,26,13,45,757.20
2014,04,26,13,46,739.00
2014,04,26,13,47,730.80
2014,04,26,13,48,696.00
2014,04,26,13,49,651.70
2014,04,26,13,50,698.90
2014,04,26,13,51,712.00
2014,04,26,13,52,644.70
2014,04,26,13,53,620.80
2014,04,26,13,54,596.00
2014,04,26,13,55,586.40
2014,04,26,13,56,544.20
2014,04,26,13,57,567.70
2014,04,26,13,58,621.40
2014,04,26,13,59,625.60
2014,04,26,14,00,639.10
2014,04,26,14,01,660.10
2014,04,26,14,02,712.40
2014,04,26,14,03,810.70
2014,04,26,14,04,870.90
2014,04,26,14,05,928.00
2014,04,26,14,06,951.90
2014,04,26,14,07,884.00
2014,04,26,14,08,812.00
2014,04,26,14,09,798.10
2014,04,26,14,10,655.80
2014,04,26,14,11,616.70
2014,04,26,14,12,614.90
2014,04,26,14,13,578.80
2014,04,26,14,14,617.00
2014,04,26,14,15,657.00
2014,04,26,14,16,698.30
2014,04,26,14,17,728.80
2014,04,26,14,18,775.00
2014,04,26,14,19,778.50
2014,04,26,14,20,817.90
2014,04,26,14,21,828.00
2014,04,26,14,22,941.60
2014,04,26,14,23,967.00
2014,04,26,14,24,946.90
2014,04,26,14,25,746.00
2014,04,26,14,26,702.70
2014,04,26,14,27,712.60
2014,04,26,14,28,734.90
2014,04,26,14,29,754.00
2014,04,26,14,30,510.70
2014,04,26,14,31,253.40
2014,04,26,14,32,262.00
2014,04,26,14,33,262.00
2014,04,26,14,34,749.30
2014,04,26,14,35,932.00
2014,04,26,14,36,783.70
2014,04,26,14,37,692.60
2014,04,26,14,38,684.70
2014,04,26,14,39,659.00
2014,04,26,14,40,601.20
2014,04,26,14,41,341.00
2014,04,26,14,42,341.00
2014,04,26,14,43,341.00
2014,04,26,14,44,341.00
2014,04,26,14,45,552.90
2014,04,26,14,46,786.00
2014,04,26,14,47,645.50
2014,04,26,14,48,559.00
2014,04,26,14,49,484.80
2014,04,26,14,50,471.60
2014,04,26,14,51,459.60
2014,04,26,14,52,457.00
2014,04,26,14,53,634.50
2014,04,26,14,54,643.00
2014,04,26,14,55,643.00
2014,04,26,14,56,618.50
2014,04,26,14,57,540.00
2014,04,26,14,58,613.50
2014,04,26,14,59,742.00
2014,04,26,15,00,742.00
2014,04,26,15,01,640.40
2014,04,26,15,02,548.00
2014,04,26,15,03,495.30
2014,04,26,15,04,450.10
2014,04,26,15,05,428.40
2014,04,26,15,06,455.90
2014,04,26,15,07,480.10
2014,04,26,15,08,467.70
2014,04,26,15,09,462.00
2014,04,26,15,10,456.90
2014,04,26,15,11,430.70
2014,04,26,15,12,417.10
2014,04,26,15,13,409.30
2014,04,26,15,14,406.30
2014,04,26,15,15,406.90
2014,04,26,15,16,404.00
2014,04,26,15,17,395.90
2014,04,26,15,18,392.70
2014,04,26,15,19,392.00
2014,04,26,15,20,388.80
2014,04,26,15,21,393.10
2014,04,26,15,22,400.40
2014,04,26,15,23,406.80
2014,04,26,15,24,423.60
2014,04,26,15,25,435.90
2014,04,26,15,26,422.70
2014,04,26,15,27,428.70
2014,04,26,15,28,438.00
2014,04,26,15,29,441.00
2014,04,26,15,30,445.00
2014,04,26,15,31,446.60
2014,04,26,15,32,440.60
2014,04,26,15,33,417.30
2014,04,26,15,34,397.80
2014,04,26,15,35,381.00
2014,04,26,15,36,367.70
2014,04,26,15,37,357.80
2014,04,26,15,38,355.80
2014,04,26,15,39,372.60
2014,04,26,15,40,394.70
2014,04,26,15,41,425.00
2014,04,26,15,42,425.00
2014,04,26,15,43,425.00
2014,04,26,15,44,425.00
2014,04,26,15,45,425.00
2014,04,26,15,46,495.40
2014,04,26,15,47,558.30
2014,04,26,15,48,567.70
2014,04,26,15,49,499.70
2014,04,26,15,50,501.30
2014,04,26,15,51,529.40
2014,04,26,15,52,444.80
2014,04,26,15,53,466.00
2014,04,26,15,54,483.90
2014,04,26,15,55,662.50
2014,04,26,15,56,719.80
2014,04,26,15,57,780.00
2014,04,26,15,58,684.40
2014,04,26,15,59,541.00
2014,04,26,16,00,618.20
2014,04,26,16,01,695.80
2014,04,26,16,02,671.30
2014,04,26,16,03,612.70
2014,04,26,16,04,593.70
2014,04,26,16,05,661.50
2014,04,26,16,06,671.70
2014,04,26,16,07,679.10
2014,04,26,16,08,706.70
2014,04,26,16,09,698.10
2014,04,26,16,10,682.40
2014,04,26,16,11,691.30
2014,04,26,16,12,684.30
2014,04,26,16,13,682.50
2014,04,26,16,14,692.60
2014,04,26,16,15,699.00
2014,04,26,16,16,698.00
2014,04,26,16,17,573.00
2014,04,26,16,18,496.00
2014,04,26,16,19,322.90
2014,04,26,16,20,254.00
2014,04,26,16,21,260.70
2014,04,26,16,22,282.90
2014,04,26,16,23,372.00
2014,04,26,16,24,431.00
2014,04,26,16,25,431.00
2014,04,26,16,26,428.40
2014,04,26,16,27,408.90
2014,04,26,16,28,359.90
2014,04,26,16,29,308.00
2014,04,26,16,30,283.20
2014,04,26,16,31,273.10
2014,04,26,16,32,274.60
2014,04,26,16,33,293.30
2014,04,26,16,34,318.50
2014,04,26,16,35,362.20
2014,04,26,16,36,392.40
2014,04,26,16,37,376.00
2014,04,26,16,38,388.10
2014,04,26,16,39,353.80
2014,04,26,16,40,390.00
2014,04,26,16,41,435.70
2014,04,26,16,42,568.90
2014,04,26,16,43,541.80
2014,04,26,16,44,553.30
2014,04,26,16,45,534.50
2014,04,26,16,46,501.10
2014,04,26,16,47,485.80
2014,04,26,16,48,424.70
2014,04,26,16,49,414.90
2014,04,26,16,50,406.60
2014,04,26,16,51,397.90
2014,04,26,16,52,397.00
2014,04,26,16,53,384.20
2014,04,26,16,54,359.20
2014,04,26,16,55,399.00
2014,04,26,16,56,395.20
2014,04,26,16,57,377.30
2014,04,26,16,58,359.30
2014,04,26,16,59,352.00
2014,04,26,17,00,353.60
2014,04,26,17,01,342.60
2014,04,26,17,02,338.10
2014,04,26,17,03,295.00
2014,04,26,17,04,248.40
2014,04,26,17,05,232.00
2014,04,26,17,06,225.70
2014,04,26,17,07,215.00
2014,04,26,17,08,211.10
2014,04,26,17,09,213.80